sat.trackr.live / text

‹ back to catalog

STARLINK-34962

NORAD 65248 · 2025-179P

PAYLOAD ACTIVE UNKNOWN

§ Identity

Operator
Country
US
Launch date
2025-08-18
Launch site
AFWTR
Launch vehicle
Mass (kg)
RCS (m²)

Purposes: comms

External: N2YO · Heavens-Above · Gunter

§ Orbital elements

Epoch: 2026-09-20T15:55:51.448224Z

Period
93.91 min
Inclination
97.2848°
Eccentricity
0.0000968
Mean motion
15.33447292 rev/d
Perigee alt
464.9 km
Apogee alt
466.2 km
Semi-major
6,843.7 km
B*
4.3799e-4
RAAN
302.9196°
Arg perigee
102.6413°
Mean anomaly
257.4938°
Rev number
6,134

§ Raw data

STARLINK-349621 65248U 25179P   26263.66378991  .00014092  00000+0  43799-3 0  99972 65248  97.2848 302.9196 0000968 102.6413 257.4938 15.33447292 61347

JSON: /api/v1/satellites/65248 · /tle

For live sub-satellite position, see the globe view (requires WebGL).

§ Visibility from observer

Set your observer location to see the next 7 days of passes ≥ 10°. The values pass through the URL so the page stays shareable.

No JS? Fill the form by hand. The geolocation button needs JavaScript.